Regional Weather Roundup
Issued by NWS

Home | Current Version | Previous Version | Text Only | Print | Product List | Glossary On
Versions: 1 2 3 4 5 6 7 8 9 10 11 12 13 14 15 16 17 18 19 20 21 22 23 24 25 26 27 28 29 30 31 32 33 34 35 36 37 38 39 40 41 42 43 44 45 46 47 48 49 50
000
ASUS43 KLMK 231510
RWRKY
KENTUCKY REGIONAL WEATHER ROUNDUP
NATIONAL WEATHER SERVICE LOUISVILLE KY
1100 AM EDT SAT AUG 23 2014

NOTE "FAIR" INDICATES FEW OR NO CLOUDS BELOW 12,000 FEET
WITH NO SIGNIFICANT WEATHER AND/OR OBSTRUCTIONS TO VISIBILITY.

KYZ001>023-026-027-061>063-070>075-231600-
WESTERN AND SOUTH CENTRAL KENTUCKY

CITY           SKY/WX    TMP DP  RH WIND       PRES   REMARKS
PADUCAH        MOSUNNY   84  77  79 SW6       29.99S HX  94
HENDERSON      MOSUNNY   86  75  70 SW9       29.97R HX  95
OWENSBORO      SUNNY     85  77  77 S8        29.99S HX  95
HOPKINSVILLE   PTSUNNY   82  79  91 SW8       30.01S HX  92
BOWLING GREEN  MOSUNNY   84  71  65 VRB3      30.02S
GLASGOW        CLOUDY    82  72  70 S5        30.03R
$$

KYZ024-025-028>034-038-045-046-053-231600-
NORTH CENTRAL KENTUCKY

CITY           SKY/WX    TMP DP  RH WIND       PRES   REMARKS
LOUISVILLE/SDF MOSUNNY   83  73  72 CALM      30.00S
LOUISVILLE/LOU SUNNY     82  71  69 E3        30.01S
FORT KNOX      PTSUNNY   82  68  61 VRB2      30.01R
$$

KYZ035>037-039>044-047>052-055>060-089>105-231600-
NORTHEAST KENTUCKY

CITY           SKY/WX    TMP DP  RH WIND       PRES   REMARKS
LEXINGTON      MOSUNNY   81  74  79 CALM      30.04S
COVINGTON      PTSUNNY   83  73  72 NE3       30.03R
FRANKFORT      MOSUNNY   81  73  76 CALM      30.02S
$$

KYZ054-064>069-076>088-106>120-231600-
SOUTHEAST KENTUCKY

CITY           SKY/WX    TMP DP  RH WIND       PRES   REMARKS
JACKSON        CLOUDY    75  71  87 CALM      30.07R
LONDON         CLOUDY    81  70  69 SW5       30.06R
SOMERSET       MOSUNNY   81  70  69 CALM      30.06R
MIDDLESBORO    MOSUNNY   82  73  72 CALM      30.05S
MONTICELLO     SUNNY     85  75  71 CALM      30.06S HX  93
$$



USA.gov is the U.S. government's official web portal to all federal, state and local government web resources and services.